Location: *
(51.4660°N, 0.3360°W)
Time: 23:34:39
(UTC+00:00)

Spot 2 Rocket - Pass Details

Date: 19 September 2019
Orbit: 758 x 772 km, 98.6° (Epoch: 21 October)

Event Time Altitude Azimuth Distance (km) Brightness Sun altitude
Exits shadow 19:45:59 25° 106° (ESE) 1,490 4.4 -15.7°
Maximum altitude 19:48:00 35° 63° (ENE) 1,212 4.2 -16.0°
Drops below altitude 10° 19:52:34 10° 359° (N) 2,301 6.3 -16.7°
Sets 19:55:01 0° 351° (N) 3,230 7.2 -17.0°
